Regional Weather Roundup
Issued by NWS

Home | Current Version | Previous Version | Graphics & Text | Print | Product List | Glossary On
Versions: 1 2 3 4 5 6 7 8 9 10 11 12 13 14 15 16 17 18 19 20 21 22 23 24 25 26 27 28 29 30 31 32 33 34 35 36 37 38 39 40 41 42 43 44 45 46 47 48 49 50
000
ASUS43 KIND 221009
RWRIN

WEATHER ROUNDUP FOR INDIANA
NATIONAL WEATHER SERVICE INDIANAPOLIS IN
600 AM EDT FRI MAY 22 2015

NOTE: "FAIR" INDICATES FEW OR NO CLOUDS BELOW 12,000 FEET WITH NO
SIGNIFICANT WEATHER AND/OR OBSTRUCTIONS TO VISIBILITY.

* - STATION DOES NOT REPORT WEATHER SUCH AS PRECIPITATION OR FOG.

+ - STATION NOT QUALITY CONTROLLED BY THE NATIONAL WEATHER SERVICE.
    USE DATA WITH CAUTION...ESPECIALLY DEWPOINT AND RELATIVE
    HUMIDITY OBSERVATIONS.

INZ001>003-010>013-019-020-221100-
NORTHWEST INDIANA

CITY           SKY/WX    TMP DP  RH WIND       PRES   REMARKS
GARY /AIRPORT/ CLEAR     46  45  93 MISG      30.10R
KNOX *+        CLEAR     45  41  87 SW7       30.08S
LA PORTE +     CLEAR     46  41  83 CALM      30.09R
MICHIGAN CITY+ CLEAR     43  43 100 CALM      30.10R
MONTICELLO +   CLEAR     47  43  84 SW6       30.10R
RENSSELAER +   CLEAR     48  45  87 SW5       30.10R
VALPARAISO     CLEAR     48  41  76 SW3       30.09R

$$

LMZ046-743>745-221100-
SOUTHERN LAKE MICHIGAN

STATION/POSITION TIME  TEMP    WIND        PRES    WAVE
                       AIR SEA DIR/SP/G            HT
                 (UTC) (F)     (DEG/KT/KT) (MB)    (FT)
BURNS HARBOR     1000   54     200/  4/  5 1019.0S
MICHIGAN CITY    1000   53     360/  7/  9   N/A
5NW MICH CITY    1000   50 51   30/  6/  8   N/A     1

$$

INZ004-005-014>016-021>024-221100-
NORTH CENTRAL INDIANA

CITY           SKY/WX    TMP DP  RH WIND       PRES   REMARKS
GOSHEN         PTCLDY    48  41  76 S3        30.08R
LOGANSPORT +   PTCLDY    45  37  76 SW5       30.11R
PERU/GRISSOM   PTCLDY    49  42  76 W5        30.09R
ROCHESTER +    CLEAR     48  43  81 CALM      30.10S
SOUTH BEND     CLEAR     45  39  79 N6        30.10R
WARSAW +       PTCLDY    46  41  81 CALM      30.09R

$$

INZ006>009-017-018-025>027-221100-
NORTHEAST INDIANA

CITY           SKY/WX    TMP DP  RH WIND       PRES   REMARKS
ANGOLA *+      CLOUDY    50  39  66 CALM      30.08R
AUBURN +       LGT RAIN  48  41  76 SW3       30.09S
FORT WAYNE     PTCLDY    46  40  79 W6        30.10S
HUNTINGTON +   CLEAR     44  39  83 CALM      30.10S

$$

INZ028-029-035-036-043>045-051>053-221100-
WEST CENTRAL INDIANA

CITY           SKY/WX    TMP DP  RH WIND       PRES   REMARKS
CRAWFORDSVL +  CLEAR     45  38  76 SW7       30.14R
GREENCASTLE +  CLEAR     45  37  76 S3        30.15S
LAFAYETTE      CLEAR     46  42  86 SW6       30.11R
TERRE HAUTE    CLEAR     50  42  74 SW8       30.16R

$$

INZ030>032-037>040-046>048-054>057-064-065-221100-
CENTRAL INDIANA

CITY           SKY/WX    TMP DP  RH WIND       PRES   REMARKS
CP ATTERBURY + CLEAR     46  41  81 W7        30.17R
FRANKFORT +    CLEAR     48  42  82 S6        30.13R
INDIANAPOLIS   PTCLDY    45  40  82 SW8       30.13R
-EAGLE CREEK   CLEAR     47  41  80 SW6       30.13R
KOKOMO *+      PTCLDY    48  41  76 W10       30.10S
MARION +       CLEAR     45  38  77 SW5       30.11S
MT COMFORT *+  CLEAR     48  37  66 SW8       30.14R
SHELBYVILLE    CLEAR     49  42  77 SW9       30.15R
ZIONSVILLE +   CLEAR     48  40  73 SW6       30.14R

$$

INZ033-034-041-042-049-050-058-059-221100-
EAST CENTRAL INDIANA

CITY           SKY/WX    TMP DP  RH WIND       PRES   REMARKS
MUNCIE         CLEAR     48  40  73 SW8       30.11R

$$

INZ060-061-067>069-081>083-085>088-221100-
SOUTHWEST INDIANA

CITY           SKY/WX    TMP DP  RH WIND       PRES   REMARKS
EVANSVILLE     CLEAR     46  43  89 W5        30.23R
HUNTINGBURG *+ CLEAR     43  39  87 S5        30.22R
WASHINGTON +   CLEAR     48  41  77 SW6       30.20R

$$

INZ062-063-066-070>080-084-089>092-221100-
SOUTH CENTRAL AND SOUTHEAST INDIANA

CITY           SKY/WX    TMP DP  RH WIND       PRES   REMARKS
BLOOMINGTON    CLEAR     49  42  77 W7        30.18R
MADISON *+       N/A     41  39  93 CALM      30.21R
NORTH VERNON + CLEAR     41  41 100 CALM      30.18R
SEYMOUR +      CLEAR     46  41  81 SW6       30.18R

$$




USA.gov is the U.S. government's official web portal to all federal, state and local government web resources and services.